Theta_e
312 310 310 308 307 308 307 308 310 310 311 313 314 315 315 316 316 318 317 318 319 323
310 309 307 307 307 308 307 310 310 310 310 311 312 313 313 313 314 316 319 320 322 323
307 308 308 307 306 306 305 307 307 307 307 308 310 310 309 309 311 314 317 322 323 322
302 304 305 303 303 304 304 304 305 305 305 305 306 307 306 307 310 314 316 319 319 319
302 302 301 302 302 303 302 303 303 304 304 305 306 305 306 308 312 313 314 317 318 321
300 299 299 300 301 301 301 301 302 303 302 303 304 304 306 309 311 312 314 317 320 319
299 299 299 299 299 300 300 300 300 301 302 302 303 305 306 308 311 312 314 318 319 321
299 300 300 299 299 300 299 300 300 301 301 301 303 305 306 308 309 310 313 316 320 324
299 299 299 299 299 298 298 298 299 299 299 300 303 304 305 308 308 309 313 315 320 323
300 300 301 301 301 299 298 295 295 297 299 300 302 303 303 306 309 311 314 318 319 321
300 299 300 302 301 300 296 293 294 297 300 301 304 304 303 303 309 312 316 318 319 318
299 299 299 298 298 299 298 293 295 298 300 303 305 305 302 303 310 314 313 316 316 315
299 299 299 299 298 299 296 298 299 300 303 305 307 304 302 304 315 312 312 312 312 307
299 299 299 299 297 298 298 299 300 301 304 305 305 306 302 305 313 312 309 308 308 307
Wind_Speed
8 6 6 5 3 3 3 3 3 3 4 7 6 7 6 5 5 5 5 8 7 7
8 6 5 4 3 3 3 3 2 4 5 6 7 7 7 6 7 6 6 8 8 8
7 3 1 3 3 4 4 4 5 6 6 8 9 9 8 8 8 8 7 6 7 8
5 4 4 4 4 5 5 7 7 7 8 9 9 8 9 9 10 11 10 7 7 9
7 7 7 6 7 7 7 7 7 7 9 9 10 9 10 11 10 10 11 9 8 10
8 7 7 7 7 7 8 8 8 9 9 10 12 11 11 11 12 11 12 11 8 9
9 9 8 9 8 9 10 10 8 9 10 11 12 12 12 12 11 10 11 12 10 9
8 10 12 11 10 10 9 9 8 9 9 10 10 10 12 11 10 10 12 12 11 11
13 12 12 12 11 10 9 8 8 9 10 12 10 17 19 16 12 12 14 12 12 10
14 14 11 12 11 11 9 7 8 8 10 12 13 19 17 20 12 12 13 13 10 9
14 12 12 10 8 8 6 7 7 8 10 12 13 16 16 13 9 10 13 12 6 5
13 12 10 9 10 8 8 6 7 9 11 12 13 12 11 10 8 6 6 5 6 7
12 12 9 10 10 10 6 9 7 10 10 13 10 11 13 7 5 8 5 5 9 15
11 10 10 9 8 8 7 7 9 10 9 5 6 8 8 8 5 7 6 5 6 9
Wind_Direction
238 228 243 233 246 249 241 256 274 315 307 298 297 297 287 287 282 272 258 268 256 264
278 245 241 257 223 214 233 254 277 299 290 278 279 276 282 284 281 282 265 262 268 255
307 300 249 189 194 218 246 251 268 275 272 277 279 276 275 281 276 269 270 256 254 256
285 294 277 255 248 235 233 243 245 247 260 274 273 261 271 272 275 271 273 250 237 253
256 248 244 243 242 245 249 252 249 248 259 269 267 263 263 269 269 270 275 274 239 247
255 252 251 247 246 247 247 247 247 252 260 265 268 266 262 263 263 265 265 266 251 240
261 261 260 259 251 251 246 250 243 246 248 262 267 265 267 264 260 264 265 263 263 252
254 259 270 260 253 249 241 249 246 253 262 271 268 266 258 254 253 257 261 258 258 255
275 267 254 257 257 251 249 243 239 246 261 270 260 264 261 255 259 265 260 260 258 227
274 268 257 262 258 251 245 240 243 251 262 265 269 261 255 261 256 248 242 244 244 225
278 277 277 271 254 267 258 243 244 256 261 266 268 268 269 254 247 238 230 223 193 180
282 280 275 274 275 271 279 264 256 263 272 272 283 272 275 268 248 197 156 150 142 121
279 275 267 273 268 272 258 264 264 276 272 281 292 293 282 238 159 135 136 98 126 128
280 277 274 266 266 264 261 270 275 275 279 290 286 292 259 110 112 125 105 97 128 132